�������l�o���
Date,Time,MP-1(��Sv/h),MP-2(��Sv/h),MP-3(��Sv/h),MP-4(��Sv/h),MP-5(��Sv/h),MP-6(��Sv/h),MP-7(��Sv/h),MP-8(��Sv/h),����,����(m/s),���J
2024/01/21,00:00,0.524,0.788,0.495,1.006,0.716,0.318,0.568,0.528,�k��,7.1,�L
2024/01/21,00:10,0.525,0.791,0.494,1.006,0.713,0.319,0.567,0.528,�k��,7.1,�L
2024/01/21,00:20,0.525,0.790,0.495,1.007,0.713,0.319,0.567,0.528,�k�k��,6.9,�L
2024/01/21,00:30,0.523,0.788,0.495,1.008,0.715,0.319,0.568,0.528,�k�k��,6.7,�L
2024/01/21,00:40,0.524,0.789,0.495,1.006,0.714,0.320,0.568,0.528,�k�k��,6.0,�L
2024/01/21,00:50,0.523,0.788,0.496,1.006,0.713,0.321,0.567,0.530,�k�k��,6.7,�L
2024/01/21,01:00,0.523,0.788,0.493,1.004,0.713,0.320,0.567,0.530,�k�k��,6.2,�L
2024/01/21,01:10,0.523,0.787,0.494,1.004,0.712,0.321,0.567,0.528,�k�k��,7.0,�L
2024/01/21,01:20,0.522,0.786,0.495,1.005,0.712,0.322,0.567,0.529,�k�k��,7.0,�L
2024/01/21,01:30,0.522,0.784,0.493,1.005,0.712,0.322,0.566,0.526,�k�k��,7.8,�L
2024/01/21,01:40,0.521,0.782,0.493,1.003,0.709,0.321,0.566,0.527,�k�k��,7.4,�L
2024/01/21,01:50,0.522,0.780,0.493,1.000,0.707,0.322,0.566,0.528,�k�k��,8.0,�L
2024/01/21,02:00,0.521,0.783,0.493,1.001,0.708,0.319,0.565,0.527,�k�k��,7.6,�L
2024/01/21,02:10,0.519,0.779,0.492,0.999,0.705,0.319,0.565,0.526,�k�k��,7.8,�L
2024/01/21,02:20,0.519,0.778,0.490,0.995,0.705,0.320,0.565,0.526,�k�k��,7.7,�L
2024/01/21,02:30,0.519,0.776,0.491,0.996,0.704,0.319,0.565,0.525,�k�k��,6.6,�L
2024/01/21,02:40,0.516,0.776,0.490,0.996,0.703,0.320,0.564,0.527,�k�k��,8.0,�L
2024/01/21,02:50,0.519,0.773,0.490,0.994,0.700,0.317,0.564,0.527,�k�k��,7.5,�L
2024/01/21,03:00,0.517,0.772,0.491,0.992,0.701,0.322,0.563,0.525,�k�k��,7.2,�L
2024/01/21,03:10,0.515,0.770,0.488,0.985,0.697,0.320,0.561,0.525,�쐼,7.2,�L
2024/01/21,03:20,0.513,0.764,0.488,0.978,0.693,0.319,0.560,0.523,���k��,2.9,�L
2024/01/21,03:30,0.512,0.762,0.486,0.971,0.692,0.318,0.560,0.521,�k�k��,7.5,�L
2024/01/21,03:40,0.512,0.764,0.487,0.973,0.692,0.318,0.560,0.522,�k�k��,7.6,�L
2024/01/21,03:50,0.510,0.760,0.487,0.968,0.691,0.317,0.559,0.523,�k�k��,6.8,�L
2024/01/21,04:00,0.510,0.760,0.485,0.968,0.689,0.317,0.559,0.521,�k�k��,7.0,�L
2024/01/21,04:10,0.510,0.758,0.485,0.967,0.691,0.317,0.559,0.522,�k�k��,6.7,�L
2024/01/21,04:20,0.509,0.758,0.484,0.965,0.688,0.316,0.558,0.522,�k�k��,7.7,�L
2024/01/21,04:30,0.507,0.757,0.484,0.961,0.686,0.315,0.559,0.521,�k�k��,7.8,�L
2024/01/21,04:40,0.504,0.756,0.480,0.958,0.686,0.315,0.556,0.521,�k�k��,8.1,�L
2024/01/21,04:50,0.506,0.754,0.484,0.957,0.685,0.314,0.557,0.519,�k�k��,7.6,�L
2024/01/21,05:00,0.504,0.754,0.484,0.958,0.684,0.315,0.557,0.520,�k�k��,7.4,�L
2024/01/21,05:10,0.505,0.753,0.482,0.958,0.683,0.314,0.556,0.519,�k�k��,7.6,�L
2024/01/21,05:20,0.504,0.751,0.483,0.955,0.683,0.315,0.556,0.520,�k�k��,8.3,�L
2024/01/21,05:30,0.505,0.754,0.483,0.954,0.683,0.317,0.556,0.519,�k�k��,7.4,�L
2024/01/21,05:40,0.505,0.751,0.482,0.953,0.682,0.315,0.556,0.519,�k�k��,7.4,�L
2024/01/21,05:50,0.503,0.752,0.483,0.953,0.681,0.316,0.556,0.518,�k�k��,6.8,�L
2024/01/21,06:00,0.504,0.752,0.482,0.952,0.680,0.315,0.555,0.518,�k�k��,6.6,�L
2024/01/21,06:10,0.503,0.751,0.482,0.953,0.683,0.315,0.555,0.519,�k�k��,7.5,�L
2024/01/21,06:20,0.502,0.750,0.481,0.951,0.681,0.314,0.555,0.520,�k�k��,7.5,�L
2024/01/21,06:30,0.503,0.750,0.480,0.950,0.679,0.314,0.555,0.519,�k�k��,7.7,�L
2024/01/21,06:40,0.502,0.750,0.480,0.949,0.679,0.313,0.555,0.519,�k�k��,7.5,�L
2024/01/21,06:50,0.502,0.748,0.478,0.949,0.678,0.313,0.555,0.518,�k�k��,7.6,�L
2024/01/21,07:00,0.500,0.748,0.480,0.949,0.677,0.314,0.554,0.517,�k�k��,6.9,�L
2024/01/21,07:10,0.500,0.746,0.478,0.945,0.675,0.313,0.554,0.518,�k�k��,7.4,�L
2024/01/21,07:20,0.499,0.744,0.478,0.946,0.675,0.314,0.551,0.517,�k�k��,7.0,�L
2024/01/21,07:30,0.500,0.746,0.479,0.945,0.675,0.313,0.554,0.517,�k�k��,8.4,�L
2024/01/21,07:40,0.498,0.743,0.476,0.945,0.673,0.312,0.552,0.517,�k�k��,7.9,�L
2024/01/21,07:50,0.497,0.743,0.477,0.942,0.672,0.312,0.553,0.517,�k�k��,8.4,�L
2024/01/21,08:00,0.496,0.743,0.476,0.941,0.669,0.311,0.551,0.516,�k�k��,6.9,�L
2024/01/21,08:10,0.492,0.741,0.475,0.938,0.668,0.309,0.550,0.514,�k�k��,6.9,�L
2024/01/21,08:20,0.493,0.737,0.474,0.935,0.663,0.310,0.550,0.514,�k�k��,6.4,�L
2024/01/21,08:30,0.492,0.736,0.474,0.932,0.663,0.309,0.548,0.514,�k�k��,7.3,�L
2024/01/21,08:40,0.492,0.733,0.473,0.933,0.660,0.311,0.548,0.513,�k�k��,6.9,�L
2024/01/21,08:50,0.490,0.732,0.471,0.928,0.654,0.309,0.546,0.512,�k�k��,8.1,�L
2024/01/21,09:00,0.488,0.733,0.472,0.925,0.652,0.309,0.546,0.511,�k�k��,5.4,�L
2024/01/21,09:10,0.495,0.733,0.474,0.923,0.650,0.310,0.548,0.513,�k,2.3,�L
2024/01/21,09:20,0.500,0.735,0.478,0.929,0.652,0.313,0.549,0.515,��,14.2,�L
2024/01/21,09:30,0.503,0.739,0.480,0.931,0.653,0.315,0.549,0.517,-,CALM,�L
2024/01/21,09:40,0.501,0.740,0.482,0.934,0.655,0.316,0.551,0.517,-,CALM,�L
2024/01/21,09:50,0.502,0.740,0.482,0.935,0.652,0.317,0.548,0.517,-,CALM,�L
2024/01/21,10:00,0.504,0.740,0.482,0.935,0.653,0.317,0.547,0.515,-,CALM,�L
2024/01/21,10:10,0.503,0.740,0.483,0.937,0.654,0.318,0.550,0.516,-,CALM,�L
2024/01/21,10:20,0.503,0.741,0.480,0.935,0.655,0.317,0.549,0.517,���쓌,17.4,�L
2024/01/21,10:30,0.503,0.739,0.482,0.936,0.655,0.317,0.549,0.517,-,CALM,�L
2024/01/21,10:40,0.504,0.740,0.480,0.934,0.651,0.316,0.548,0.516,�쓌,15.2,�L
2024/01/21,10:50,0.503,0.739,0.480,0.934,0.652,0.317,0.548,0.516,���쓌,15.2,�L
2024/01/21,11:00,0.502,0.740,0.479,0.935,0.655,0.316,0.550,0.516,-,CALM,�L
2024/01/21,11:10,0.500,0.741,0.479,0.932,0.652,0.316,0.547,0.516,-,CALM,�L
2024/01/21,11:20,0.500,0.739,0.479,0.933,0.652,0.315,0.547,0.515,���쓌,13.9,�L
2024/01/21,11:30,0.500,0.740,0.478,0.932,0.650,0.314,0.547,0.516,-,CALM,�L
2024/01/21,11:40,0.498,0.739,0.479,0.930,0.647,0.316,0.547,0.515,-,CALM,�L
2024/01/21,11:50,0.497,0.739,0.477,0.931,0.648,0.313,0.545,0.513,-,CALM,�L
2024/01/21,12:00,0.496,0.736,0.477,0.929,0.648,0.315,0.546,0.515,���쓌,13.8,�L
2024/01/21,12:10,0.497,0.733,0.476,0.930,0.648,0.313,0.545,0.513,-,CALM,�L
2024/01/21,12:20,0.494,0.734,0.476,0.927,0.642,0.313,0.544,0.513,-,CALM,�L
2024/01/21,12:30,0.492,0.732,0.474,0.923,0.638,0.313,0.544,0.511,-,CALM,�L
2024/01/21,12:40,0.492,0.729,0.473,0.922,0.639,0.312,0.545,0.512,-,CALM,�L
2024/01/21,12:50,0.493,0.731,0.474,0.923,0.641,0.312,0.543,0.514,-,CALM,�L
2024/01/21,13:00,0.493,0.730,0.474,0.923,0.639,0.311,0.543,0.512,-,CALM,�L
2024/01/21,13:10,0.492,0.730,0.474,0.921,0.637,0.310,0.543,0.512,-,CALM,�L
2024/01/21,13:20,0.490,0.726,0.475,0.921,0.634,0.310,0.542,0.512,-,CALM,�L
2024/01/21,13:30,0.490,0.725,0.472,0.919,0.635,0.309,0.541,0.510,-,CALM,�L
2024/01/21,13:40,0.490,0.728,0.473,0.920,0.634,0.310,0.543,0.511,-,CALM,�L
2024/01/21,13:50,0.490,0.727,0.473,0.916,0.630,0.308,0.542,0.511,-,CALM,�L
2024/01/21,14:00,0.489,0.725,0.471,0.918,0.629,0.309,0.542,0.509,-,CALM,�L
2024/01/21,14:10,0.488,0.721,0.471,0.915,0.627,0.308,0.541,0.510,-,CALM,�L
2024/01/21,14:20,0.488,0.723,0.473,0.917,0.627,0.309,0.541,0.510,-,CALM,�L
2024/01/21,14:30,0.489,0.722,0.471,0.916,0.626,0.310,0.541,0.511,-,CALM,�L
2024/01/21,14:40,0.486,0.722,0.470,0.913,0.623,0.307,0.541,0.509,-,CALM,�L
2024/01/21,14:50,0.486,0.721,0.470,0.912,0.621,0.308,0.541,0.509,-,CALM,�L
2024/01/21,15:00,0.484,0.717,0.470,0.907,0.615,0.308,0.538,0.509,-,CALM,�L
2024/01/21,15:10,0.479,0.713,0.468,0.902,0.608,0.305,0.536,0.504,���k��,19.7,�L
2024/01/21,15:20,0.476,0.708,0.465,0.894,0.600,0.302,0.533,0.502,-,CALM,�L
2024/01/21,15:30,0.476,0.708,0.464,0.897,0.592,0.301,0.532,0.503,-,CALM,�L
2024/01/21,15:40,0.478,0.705,0.463,0.898,0.586,0.301,0.533,0.500,-,CALM,�L
2024/01/21,15:50,0.480,0.706,0.463,0.900,0.581,0.302,0.533,0.501,-,CALM,�L
2024/01/21,16:00,0.480,0.704,0.464,0.902,0.575,0.304,0.534,0.502,-,CALM,�L
2024/01/21,16:10,0.480,0.705,0.463,0.901,0.574,0.304,0.532,0.504,-,CALM,�L
2024/01/21,16:20,0.481,0.703,0.465,0.906,0.575,0.305,0.532,0.505,-,CALM,�L
2024/01/21,16:30,0.483,0.705,0.463,0.906,0.577,0.304,0.535,0.507,-,CALM,�L
2024/01/21,16:40,0.484,0.707,0.463,0.907,0.582,0.304,0.534,0.507,�k��,16.8,�L
2024/01/21,16:50,0.484,0.704,0.462,0.908,0.583,0.305,0.535,0.509,�k�k��,14.4,�L
2024/01/21,17:00,0.485,0.705,0.463,0.911,0.584,0.305,0.535,0.508,�k��,13.5,�L
2024/01/21,17:10,0.484,0.701,0.463,0.908,0.588,0.304,0.534,0.508,�k��,13.9,�L
2024/01/21,17:20,0.482,0.699,0.461,0.907,0.586,0.304,0.535,0.506,�k��,13.3,�L
2024/01/21,17:30,0.481,0.698,0.460,0.904,0.589,0.302,0.534,0.507,�k��,13.0,�L
2024/01/21,17:40,0.480,0.696,0.460,0.903,0.587,0.303,0.534,0.506,�k�k��,14.9,�L
2024/01/21,17:50,0.477,0.695,0.460,0.902,0.589,0.304,0.533,0.506,�k�k��,14.7,�L
2024/01/21,18:00,0.482,0.695,0.460,0.907,0.589,0.302,0.535,0.508,�k�k��,13.3,�L
2024/01/21,18:10,0.482,0.699,0.461,0.907,0.590,0.304,0.534,0.507,-,CALM,�L
2024/01/21,18:20,0.482,0.698,0.461,0.907,0.592,0.303,0.536,0.508,�k�k��,14.7,�L
2024/01/21,18:30,0.482,0.698,0.462,0.908,0.594,0.304,0.536,0.508,�k�k��,15.7,�L
2024/01/21,18:40,0.483,0.698,0.460,0.912,0.593,0.303,0.535,0.507,�k��,15.2,�L
2024/01/21,18:50,0.483,0.696,0.461,0.908,0.595,0.304,0.536,0.507,�k�k��,13.9,�L
2024/01/21,19:00,0.482,0.696,0.461,0.906,0.596,0.305,0.537,0.507,�k�k��,14.1,�L
2024/01/21,19:10,0.481,0.696,0.460,0.906,0.595,0.304,0.535,0.508,�k��,11.7,�L
2024/01/21,19:20,0.480,0.694,0.460,0.907,0.597,0.304,0.537,0.508,�k��,14.1,�L
2024/01/21,19:30,0.481,0.697,0.459,0.909,0.597,0.305,0.535,0.506,�k�k��,14.1,�L
2024/01/21,19:40,0.482,0.700,0.460,0.911,0.599,0.303,0.536,0.506,�k��,13.5,�L
2024/01/21,19:50,0.481,0.695,0.459,0.913,0.599,0.304,0.536,0.507,�k�k��,14.7,�L
2024/01/21,20:00,0.480,0.698,0.460,0.909,0.599,0.305,0.534,0.507,�k�k��,13.5,�L
2024/01/21,20:10,0.483,0.697,0.460,0.912,0.600,0.305,0.537,0.508,�k�k��,13.3,�L
2024/01/21,20:20,0.481,0.699,0.459,0.913,0.602,0.305,0.537,0.509,�k�k��,13.5,�L
2024/01/21,20:30,0.482,0.697,0.463,0.913,0.602,0.304,0.537,0.507,�k�k��,13.9,�L
2024/01/21,20:40,0.483,0.700,0.462,0.914,0.601,0.304,0.537,0.508,�k�k��,15.2,�L
2024/01/21,20:50,0.485,0.702,0.461,0.914,0.606,0.305,0.539,0.509,�k�k��,15.8,�L
2024/01/21,21:00,0.485,0.703,0.463,0.917,0.607,0.305,0.539,0.508,�k�k��,14.6,�L
2024/01/21,21:10,0.484,0.702,0.461,0.915,0.609,0.305,0.539,0.508,�k�k��,14.2,�L
2024/01/21,21:20,0.487,0.703,0.462,0.919,0.610,0.304,0.537,0.507,�k�k��,14.1,�L
2024/01/21,21:30,0.485,0.704,0.461,0.918,0.611,0.303,0.539,0.508,�k�k��,14.7,�L
2024/01/21,21:40,0.487,0.704,0.462,0.922,0.613,0.304,0.541,0.509,�k�k��,16.0,�L
2024/01/21,21:50,0.486,0.707,0.462,0.919,0.612,0.304,0.540,0.510,�k�k��,13.3,�L
2024/01/21,22:00,0.486,0.705,0.462,0.919,0.614,0.303,0.538,0.509,�k�k��,14.7,�L
2024/01/21,22:10,0.487,0.708,0.463,0.920,0.615,0.304,0.538,0.510,�k�k��,13.3,�L
2024/01/21,22:20,0.487,0.708,0.462,0.922,0.617,0.304,0.539,0.510,�k�k��,13.5,�L
2024/01/21,22:30,0.488,0.708,0.463,0.921,0.617,0.304,0.538,0.510,�k�k��,13.1,��
2024/01/21,22:40,0.487,0.710,0.461,0.922,0.618,0.305,0.540,0.510,�k��,12.2,��
2024/01/21,22:50,0.488,0.710,0.463,0.920,0.618,0.303,0.541,0.511,�k�k��,11.7,��
2024/01/21,23:00,0.486,0.710,0.462,0.922,0.620,0.305,0.540,0.510,�k��,13.8,��
2024/01/21,23:10,0.488,0.710,0.463,0.923,0.621,0.303,0.540,0.510,�k��,10.5,��
2024/01/21,23:20,0.488,0.713,0.462,0.924,0.620,0.304,0.542,0.511,�k��,10.5,��
2024/01/21,23:30,0.488,0.714,0.462,0.923,0.624,0.305,0.540,0.511,�k�k��,10.9,��
2024/01/21,23:40,0.489,0.716,0.463,0.925,0.623,0.304,0.542,0.510,�k�k��,11.8,��
2024/01/21,23:50,0.490,0.715,0.462,0.924,0.623,0.304,0.542,0.513,�k�k��,10.5,��
